[[[{"header":{"parameterUnit":"kt","parameterCategory":2,"dx":1,"dy":1,"la1":30.253999710083008,"la2":30.299108505249023,"lo1":-89.0895004272461,"lo2":-89.04439544677734,"nx":28,"ny":28,"refTime":"2022-11-01T21:00:00:Z","depth":0,"parameterNumber":1,"parameterNumberName":"U-component_of_WINDS"},"data":[-5.7666,-5.7826,-5.7805,-5.798,-5.799,-5.8106,-5.8142,-5.8185,-5.8214,-5.8351,-5.8426,-5.8423,-5.8445,-5.8532,-5.8613,-5.861,-5.8648,-5.8719,-5.8704,-5.84,-5.8356,-5.8315,-5.8276,-5.8727,-5.8727,-5.9023,-5.9026,-5.9028,-5.7444,-5.7456,-5.7542,-5.7611,-5.7684,-5.7602,-5.7651,-5.7719,-5.7825,-5.7863,-5.7935,-5.8055,-5.8147,-5.8145,-5.8231,-5.8307,-5.8275,-5.8332,-5.8328,-5.8334,-5.8007,-5.7965,-5.8357,-5.8357,-5.8357,-5.8357,-5.8357,-5.8357,-5.7036,-5.7133,-5.7162,-5.7254,-5.7283,-5.733,-5.742,-5.7412,-5.7496,-5.7582,-5.7541,-5.7662,-5.7696,-5.779,-5.7816,-5.7911,-5.7844,-5.7901,-5.7916,-5.7932,-5.7953,-5.7533,-5.7924,-5.7923,-5.7922,-5.7921,-5.792,0,-5.6731,-5.6706,-5.6787,-5.6862,-5.6928,-5.6984,-5.7032,-5.7087,-5.7029,-5.7102,-5.7205,-5.7262,-5.7374,-5.747,-5.7546,-5.7562,-5.7488,-5.7477,-5.7517,-5.7541,-5.7552,-5.7551,-5.7021,-5.7467,-5.7463,-5.746,-5.7458,-5.7456,-5.632,-5.6435,-5.6454,-5.6514,-5.6535,-5.6632,-5.6686,-5.6626,-5.6686,-5.6737,-5.6827,-5.6921,-5.6994,-5.7165,-5.7157,-5.7242,-5.7208,-5.738,-5.722,-5.7237,-5.7214,-5.7209,-5.7221,-5.7414,-5.742,-5.7424,-5.7427,0,-5.6091,-5.6055,-5.6226,-5.6234,-5.624,-5.6365,-5.6372,-5.6467,-5.6449,-5.6578,-5.6604,-5.6578,-5.6682,-5.6645,-5.6756,-5.6735,-5.6943,-5.6905,-5.693,-5.6922,-5.7075,-5.7063,-5.7573,-5.7637,-5.7166,-5.717,-5.7174,0,-5.5728,-5.5881,-5.5819,-5.5921,-5.6089,-5.6024,-5.6193,-5.6194,-5.6221,-5.6322,-5.6229,-5.6326,-5.6263,-5.6356,-5.6324,-5.6486,-5.6507,-5.6501,-5.6492,-5.6512,-5.6513,-5.6547,-5.6526,-5.6461,-5.6459,-5.6456,-5.6454,0,-5.5376,-5.5521,-5.5685,-5.5713,-5.5738,-5.5817,-5.5831,-5.586,-5.5915,-5.5978,-5.6013,-5.6092,-5.6137,-5.6201,-5.616,-5.6053,-5.6357,-5.6201,-5.6351,-5.6353,-5.6424,-5.6421,-5.6878,-5.6451,-5.645,-5.6449,-5.6449,0,-5.5078,-5.5141,-5.5384,-5.5402,-5.5443,-5.5551,-5.5624,-5.5708,-5.5746,-5.5732,-5.5782,-5.5717,-5.5854,-5.5702,-5.5891,-5.5764,-5.5814,-5.582,-5.583,-5.5843,-5.5676,-5.5943,-5.6379,-5.6425,-5.5851,-5.5846,-5.5842,0,-5.4686,-5.492,-5.4866,-5.5098,-5.5201,-5.5089,-5.5208,-5.5244,-5.5235,-5.5322,-5.5311,-5.5413,-5.5292,-5.5319,-5.5416,-5.5412,-5.5577,-5.5388,-5.552,-5.5525,-5.5516,-5.5915,-5.5991,-5.6286,-5.5777,-5.5784,-5.5789,0,-5.4378,-5.4405,-5.4451,-5.448,-5.4515,-5.4601,-5.4738,-5.4822,-5.4884,-5.4934,-5.5049,-5.5188,-5.5103,-5.5149,-5.5104,-5.5209,-5.5463,-5.5104,-5.5104,-5.5173,-5.5741,-5.5812,-5.5862,-5.541,-5.5418,-5.5424,-5.5738,0,-5.3942,-5.4053,-5.4173,-5.424,-5.4299,-5.4442,-5.44,-5.4469,-5.4418,-5.4406,-5.4573,-5.4594,-5.4683,-5.4728,-5.4681,-5.493,-5.4884,-5.4792,-5.4645,-5.4907,-5.5009,-5.5051,-5.4495,-5.4491,-5.4487,-5.4484,0,0,-5.3578,-5.3736,-5.3672,-5.3801,-5.3848,-5.3729,-5.3886,-5.3918,-5.3987,-5.4023,-5.3939,-5.4141,-5.4163,-5.4371,-5.4449,-5.4484,-5.4526,-5.4437,-5.4782,-5.4815,-5.4846,-5.4956,-5.5,-5.4477,-5.4475,-5.4474,-5.4473,0,-5.341,-5.3429,-5.3583,-5.3613,-5.3654,-5.3632,-5.3669,-5.369,-5.3689,-5.3851,-5.3754,-5.3849,-5.4012,-5.4049,-5.4089,-5.4409,-5.4333,-5.4439,-5.4625,-5.4744,-5.4783,-5.4817,-5.4933,-5.4975,-5.4463,-5.4464,-5.4464,0,-5.3101,-5.3115,-5.3184,-5.3282,-5.3309,-5.3418,-5.3252,-5.3374,-5.3455,-5.3323,-5.3486,-5.3493,-5.3538,-5.3739,-5.3828,-5.3755,-5.4159,-5.4024,-5.4047,-5.4057,-5.4171,-5.4217,-5.4259,-5.3716,-5.3713,-5.3711,0,0,-5.2962,-5.3065,-5.3061,-5.3243,-5.3267,-5.3236,-5.329,-5.3245,-5.3286,-5.3304,-5.3311,-5.3356,-5.345,-5.3514,-5.36,-5.3825,-5.3832,-5.3933,-5.3968,-5.3997,-5.4024,-5.4145,-5.4191,-5.3702,-5.3702,-5.3701,0,0,-5.2897,-5.2899,-5.284,-5.3046,-5.3087,-5.3098,-5.3211,-5.3141,-5.3214,-5.3193,-5.3126,-5.3135,-5.3322,-5.3334,-5.3214,-5.3547,-5.3402,-5.343,-5.3534,-5.3578,-5.3612,-5.3607,-5.305,0,0,0,0,0,-5.2704,-5.2898,-5.2845,-5.2873,-5.2998,-5.3126,-5.3142,-5.309,-5.2988,-5.3079,-5.3074,-5.2987,-5.3255,-5.3148,-5.3178,-5.3313,-5.3583,-5.3604,-5.3624,-5.381,-5.3857,-5.3896,0,0,0,0,0,0,-5.2714,-5.2749,-5.2839,-5.2859,-5.2886,-5.3119,-5.2934,-5.2925,-5.2977,-5.2957,-5.2991,-5.2988,-5.2948,-5.3129,-5.3157,-5.3287,-5.304,-5.3591,-5.3609,-5.3625,-5.3826,-5.3864,-5.3897,0,0,0,0,0,-5.2722,-5.275,-5.2965,-5.2855,-5.288,-5.2856,-5.2927,-5.2918,-5.2957,-5.295,-5.2944,-5.2912,-5.2953,-5.2973,-5.3145,-5.3275,-5.3021,-5.3031,-5.3603,-5.3617,-5.363,-5.3845,0,0,0,0,0,0,-5.2728,-5.2744,-5.2968,-5.2974,-5.2778,-5.2842,-5.285,-5.2912,-5.2944,-5.2941,-5.2867,-5.2852,-5.2959,-5.2973,-5.299,-5.3274,-5.3004,-5.3015,-5.3022,-5.3614,-5.3625,-5.3634,0,0,0,0,0,0,-5.2728,-5.2749,-5.2971,-5.2876,-5.287,-5.283,-5.2837,-5.2976,-5.2946,-5.286,-5.2847,-5.286,-5.2936,-5.2975,-5.2987,-5.3206,-5.2992,-5.3003,-5.301,-5.3014,-5.3623,-5.3631,0,0,0,0,0,0,-5.2736,-5.2754,-5.2874,-5.287,-5.2864,-5.2921,-5.2951,-5.3084,-5.2862,-5.286,-5.2841,-5.2831,-5.294,-5.295,-5.2986,-5.32,-5.3205,-5.2992,-5.3,-5.3005,-5.3008,0,0,0,0,0,0,0,-5.2743,-5.2635,-5.2936,-5.2865,-5.2859,-5.3024,-5.3025,-5.3027,-5.286,-5.2852,-5.2843,-5.2836,-5.2933,-5.2944,-5.2956,-5.3196,0,0,-5.2991,-5.2996,0,0,0,0,0,0,0,0,-5.2626,-5.2633,-5.2936,-5.2937,-5.2938,-5.3024,-5.3025,-5.3027,-5.2859,-5.2852,-5.2845,-5.2839,-5.2936,-5.2945,-5.2954,0,0,0,0,0,0,0,0,0,0,0,0,0,0,0,-5.2936,-5.2937,0,-5.3024,-5.3025,-5.3026,-5.2858,-5.2852,-5.2847,-5.2841,-5.2938,-5.2946,-5.2954,0,0,0,0,0,0,0,0,0,0,0,0,0,0,0,0,0,0,0,0,0,0,0,0,0,0,0,0,0,0,0,0,0,0,0,0,0,0,0,0,0,0,0,0,0,0,0,0,0,0,0,0,0,0,0,0,0,0,0,0,0,0,0,0,0,0,0,0,0]}],[{"header":{"parameterUnit":"kt","parameterCategory":2,"dx":1,"dy":1,"la1":30.253999710083008,"la2":30.299108505249023,"lo1":-89.0895004272461,"lo2":-89.04439544677734,"nx":28,"ny":28,"refTime":"2022-11-01T21:00:00:Z","depth":0,"parameterNumber":2,"parameterNumberName":"V-component_of_WINDS"},"data":[-5.3606,-5.3652,-5.3635,-5.368,-5.3673,-5.37,-5.3704,-5.3708,-5.3707,-5.3738,-5.3753,-5.3741,-5.3733,-5.3746,-5.3761,-5.3756,-5.3763,-5.3791,-5.3779,-5.3667,-5.365,-5.3634,-5.3621,-5.3794,-5.3794,-5.3897,-5.3898,-5.3899,-5.3524,-5.3517,-5.3536,-5.3543,-5.3559,-5.3521,-5.3523,-5.3539,-5.3565,-5.3564,-5.3578,-5.3604,-5.3622,-5.3604,-5.3619,-5.364,-5.3623,-5.3645,-5.3642,-5.3641,-5.3521,-5.3508,-5.3659,-5.3659,-5.3659,-5.3659,-5.3659,-5.3659,-5.3369,-5.3398,-5.3392,-5.3412,-5.3411,-5.3416,-5.3441,-5.3424,-5.3443,-5.3456,-5.3433,-5.3462,-5.3458,-5.3467,-5.3466,-5.3488,-5.346,-5.3479,-5.3484,-5.3488,-5.3496,-5.3346,-5.349,-5.349,-5.3489,-5.3489,-5.3489,0,-5.325,-5.3234,-5.3251,-5.3263,-5.3277,-5.3285,-5.329,-5.3304,-5.3264,-5.3281,-5.3304,-5.3315,-5.3336,-5.3355,-5.3366,-5.336,-5.3322,-5.3317,-5.3329,-5.334,-5.3348,-5.3343,-5.3146,-5.3312,-5.3311,-5.3309,-5.3309,-5.3308,-5.3091,-5.3128,-5.3113,-5.3128,-5.3126,-5.315,-5.3161,-5.3122,-5.3136,-5.3135,-5.3163,-5.3182,-5.3196,-5.3236,-5.3217,-5.3233,-5.3214,-5.3279,-5.3216,-5.3225,-5.3212,-5.321,-5.3213,-5.3291,-5.3293,-5.3295,-5.3297,0,-5.3003,-5.2974,-5.3025,-5.3007,-5.3004,-5.3044,-5.3028,-5.3056,-5.3037,-5.3073,-5.3079,-5.3049,-5.3073,-5.3043,-5.3064,-5.3048,-5.3112,-5.3094,-5.3113,-5.3107,-5.3161,-5.3156,-5.3344,-5.3366,-5.3189,-5.3191,-5.3192,0,-5.2855,-5.2905,-5.2859,-5.289,-5.2944,-5.2903,-5.2957,-5.2946,-5.2942,-5.2969,-5.2921,-5.2948,-5.2905,-5.2928,-5.2903,-5.2951,-5.2955,-5.2945,-5.2937,-5.2948,-5.2949,-5.2953,-5.2944,-5.2921,-5.292,-5.292,-5.2919,0,-5.2718,-5.2753,-5.2804,-5.2807,-5.2793,-5.2818,-5.2813,-5.2808,-5.2819,-5.2829,-5.2835,-5.285,-5.2858,-5.287,-5.2838,-5.2797,-5.2896,-5.2832,-5.2885,-5.2886,-5.2908,-5.2906,-5.3083,-5.2918,-5.2917,-5.2917,-5.2917,0,-5.2594,-5.2605,-5.2684,-5.267,-5.2681,-5.2715,-5.2725,-5.2747,-5.2746,-5.2732,-5.274,-5.2703,-5.2743,-5.2681,-5.2736,-5.269,-5.27,-5.2694,-5.2697,-5.2697,-5.2629,-5.273,-5.2902,-5.2918,-5.27,-5.2698,-5.2696,0,-5.2445,-5.2516,-5.2482,-5.2558,-5.2586,-5.2528,-5.2565,-5.2565,-5.255,-5.2572,-5.2555,-5.2581,-5.2528,-5.2532,-5.2563,-5.2546,-5.2606,-5.2538,-5.2568,-5.257,-5.2568,-5.2727,-5.2759,-5.2868,-5.2673,-5.2675,-5.2677,0,-5.2325,-5.2307,-5.2324,-5.2325,-5.2318,-5.2342,-5.2385,-5.2401,-5.2418,-5.2424,-5.2457,-5.2494,-5.2455,-5.2462,-5.2434,-5.2468,-5.2565,-5.2422,-5.2421,-5.2447,-5.2659,-5.2689,-5.2708,-5.2538,-5.2541,-5.2543,-5.2658,0,-5.214,-5.2173,-5.2215,-5.2221,-5.2235,-5.2282,-5.2249,-5.2267,-5.2238,-5.2221,-5.2272,-5.2264,-5.2281,-5.2295,-5.2267,-5.2355,-5.2335,-5.2294,-5.223,-5.2335,-5.2372,-5.2387,-5.2178,-5.2176,-5.2174,-5.2173,0,0,-5.2003,-5.2049,-5.201,-5.205,-5.2059,-5.1998,-5.205,-5.2052,-5.2058,-5.2065,-5.203,-5.208,-5.2075,-5.214,-5.217,-5.2178,-5.219,-5.2155,-5.2286,-5.2299,-5.2311,-5.2351,-5.2367,-5.217,-5.2169,-5.2168,-5.2168,0,-5.1928,-5.1925,-5.1978,-5.1978,-5.1976,-5.1956,-5.1968,-5.1956,-5.1948,-5.1998,-5.1946,-5.1973,-5.2015,-5.2016,-5.2022,-5.2146,-5.2106,-5.2154,-5.2231,-5.227,-5.2285,-5.2298,-5.2341,-5.2357,-5.2164,-5.2164,-5.2164,0,-5.1802,-5.1793,-5.1816,-5.1834,-5.1833,-5.1865,-5.179,-5.1827,-5.185,-5.1782,-5.1832,-5.1823,-5.1823,-5.1889,-5.1917,-5.1886,-5.2031,-5.198,-5.199,-5.1992,-5.2027,-5.2046,-5.2062,-5.1848,-5.1847,-5.1846,0,0,-5.1742,-5.1773,-5.1751,-5.1816,-5.1819,-5.1789,-5.1802,-5.1775,-5.1775,-5.1776,-5.1764,-5.1766,-5.1789,-5.1806,-5.1826,-5.1904,-5.19,-5.1943,-5.1957,-5.197,-5.1978,-5.2017,-5.2035,-5.1842,-5.1842,-5.1842,0,0,-5.1713,-5.169,-5.1661,-5.1732,-5.1735,-5.1717,-5.1758,-5.1721,-5.1737,-5.1727,-5.1682,-5.1681,-5.1742,-5.1736,-5.1691,-5.1803,-5.1741,-5.1751,-5.1804,-5.1823,-5.1837,-5.1837,-5.1613,0,0,0,0,0,-5.1619,-5.1693,-5.1666,-5.1673,-5.1697,-5.1732,-5.1735,-5.1699,-5.1656,-5.1688,-5.1672,-5.1628,-5.1702,-5.1661,-5.1669,-5.1719,-5.1795,-5.1804,-5.1811,-5.1899,-5.1918,-5.1935,0,0,0,0,0,0,-5.1622,-5.163,-5.1664,-5.1651,-5.1656,-5.1729,-5.1647,-5.1639,-5.1651,-5.1642,-5.1633,-5.1628,-5.1598,-5.1655,-5.1662,-5.1711,-5.161,-5.1798,-5.1806,-5.1812,-5.1905,-5.1921,-5.1935,0,0,0,0,0,-5.1623,-5.163,-5.1678,-5.1649,-5.1654,-5.1624,-5.1644,-5.1637,-5.1645,-5.1621,-5.1614,-5.1617,-5.1601,-5.1605,-5.1659,-5.1708,-5.1605,-5.1608,-5.1803,-5.1809,-5.1814,-5.1913,0,0,0,0,0,0,-5.1625,-5.1624,-5.1678,-5.1678,-5.1619,-5.1619,-5.1618,-5.1635,-5.1622,-5.1617,-5.1603,-5.1596,-5.1604,-5.1606,-5.1609,-5.171,-5.1601,-5.1604,-5.1605,-5.1807,-5.1812,-5.1816,0,0,0,0,0,0,-5.162,-5.1624,-5.1678,-5.1642,-5.1637,-5.1615,-5.1614,-5.1655,-5.1623,-5.1605,-5.1599,-5.16,-5.1599,-5.1607,-5.1609,-5.1675,-5.1597,-5.16,-5.1602,-5.1603,-5.1811,-5.1814,0,0,0,0,0,0,-5.1621,-5.1625,-5.1641,-5.1638,-5.1634,-5.1631,-5.1651,-5.1677,-5.1592,-5.1606,-5.1583,-5.158,-5.1601,-5.1603,-5.161,-5.1676,-5.1676,-5.1597,-5.1599,-5.1601,-5.1601,0,0,0,0,0,0,0,-5.1622,-5.1605,-5.1678,-5.1635,-5.1631,-5.1678,-5.1678,-5.1678,-5.1591,-5.1588,-5.1584,-5.1581,-5.1581,-5.1584,-5.1587,-5.1676,0,0,-5.1597,-5.1598,0,0,0,0,0,0,0,0,-5.1602,-5.1604,-5.1678,-5.1678,-5.1678,-5.1678,-5.1678,-5.1678,-5.1591,-5.1588,-5.1585,-5.1583,-5.1582,-5.1584,-5.1587,0,0,0,0,0,0,0,0,0,0,0,0,0,0,0,-5.1678,-5.1678,0,-5.1678,-5.1678,-5.1678,-5.159,-5.1588,-5.1586,-5.1584,-5.1583,-5.1585,-5.1587,0,0,0,0,0,0,0,0,0,0,0,0,0,0,0,0,0,0,0,0,0,0,0,0,0,0,0,0,0,0,0,0,0,0,0,0,0,0,0,0,0,0,0,0,0,0,0,0,0,0,0,0,0,0,0,0,0,0,0,0,0,0,0,0,0,0,0,0,0]}]]]